Location: Caltech
(34.1382°N, 118.1253°W)
Time: 14:07:17
(UTC-07:00)

Sapphire - Visible Passes

Search period start: 23 April 2014 00:00
Search period end: 03 May 2014 00:00
Orbit: 788 x 795 km, 67.1° (Epoch: 22 April)

Date Brightness Start Highest point End Pass type
(mag) Time Alt. Az. Time Alt. Az. Time Alt. Az.
23 Apr ? 01:04:20 14° N 01:04:20 14° N 01:05:17 10° N visible
24 Apr ? 00:34:13 15° N 00:34:13 15° N 00:35:13 10° N visible
25 Apr ? 00:04:01 15° N 00:04:01 15° N 00:05:02 10° NNE visible
25 Apr ? 23:33:44 16° NNE 23:33:44 16° NNE 23:34:45 10° NNE visible
26 Apr ? 23:03:20 16° NNE 23:03:20 16° NNE 23:04:23 10° NNE visible
27 Apr ? 00:44:01 12° NW 00:44:01 12° NW 00:45:23 10° NNW visible
27 Apr ? 22:32:47 17° NE 22:32:47 17° NE 22:33:55 10° NNE visible
28 Apr ? 00:13:27 16° NW 00:13:27 16° NW 00:15:55 10° N visible
28 Apr ? 22:02:00 17° NE 22:02:00 17° NE 22:03:20 10° NE visible
28 Apr ? 23:42:39 22° NW 23:42:39 22° NW 23:46:05 10° N visible
29 Apr ? 21:30:53 18° ENE 21:30:53 18° ENE 21:32:37 10° NE visible
29 Apr ? 23:11:30 31° NW 23:11:30 31° NW 23:16:03 10° N visible
30 Apr ? 20:59:10 19° E 20:59:10 19° E 21:01:40 10° ENE visible
30 Apr ? 22:39:43 39° W 22:40:45 43° WNW 22:45:55 10° NNE visible
01 May ? 20:25:47 13° SE 20:27:28 15° ESE 20:30:19 10° ENE visible
01 May ? 22:06:03 16° SW 22:10:18 60° WNW 22:15:40 10° NNE visible
02 May ? 21:34:28 10° SSW 21:39:52 84° WNW 21:45:19 10° NNE visible
02 May ? 23:22:25 10° WNW 23:24:05 11° NW 23:25:46 10° NNW visible
